This is the latest recevied weather packets stored in our database for station/object WV6L-13. If no packets are shown the sender has not sent any weather packets the latest 10 day(s).
| Time | Temp. | Humidity | Pressure | Rain* | Wind** | Luminosity | Snow |
|---|---|---|---|---|---|---|---|
| 1777779294 | 20.56° C | 19% | 923 hPa | - | - | - | - |
| 1777778994 | 20.56° C | 19% | 923.1 hPa | - | - | - | - |
| 1777778694 | 21.11° C | 18% | 923.2 hPa | - | - | - | - |
| 1777778394 | 22.22° C | 16% | 922.9 hPa | - | - | - | - |
| 1777778095 | 22.78° C | 16% | 923 hPa | - | - | - | - |
| 1777777794 | 23.33° C | 15% | 922.9 hPa | - | - | - | - |
| 1777777494 | 23.33° C | 15% | 922.9 hPa | - | - | - | - |
| 1777777194 | 23.33° C | 15% | 922.9 hPa | - | - | - | - |
| 1777776894 | 23.33° C | 15% | 922.6 hPa | - | - | - | - |
| 1777776594 | 23.33° C | 16% | 922.8 hPa | - | - | - | - |
| 1777776295 | 23.89° C | 15% | 922.8 hPa | - | - | - | - |
| 1777775995 | 24.44° C | 15% | 922.8 hPa | - | - | - | - |
| 1777775694 | 25° C | 14% | 922.8 hPa | - | - | - | - |
| 1777775394 | 25° C | 14% | 922.7 hPa | - | - | - | - |
| 1777775094 | 25.56° C | 14% | 922.7 hPa | - | - | - | - |
| 1777773294 | 28.33° C | 11% | 922.7 hPa | - | - | - | - |
| 1777772694 | 28.89° C | 11% | 922.8 hPa | - | - | - | - |
| 1777771194 | 28.89° C | 11% | 922.6 hPa | - | - | - | - |
| 1777770595 | 30° C | 11% | 922.7 hPa | - | - | - | - |
| 1777767295 | 29.44° C | 11% | 923.1 hPa | - | - | - | - |
| 1777761595 | 29.44° C | 11% | 924.1 hPa | - | - | - | - |
| 1777761294 | 29.44° C | 11% | 924 hPa | - | - | - | - |
| 1777760994 | 28.89° C | 11% | 924.1 hPa | - | - | - | - |
| 1777760695 | 29.44° C | 11% | 924 hPa | - | - | - | - |
| 1777760394 | 29.44° C | 10% | 924.2 hPa | - | - | - | - |
* Rain since midnight (hover to see other rain measurements)
** Current wind speed in m/s (hover to see current wind gust speed)